User: anonymous   Login
Location: ????? ??????
(37.8317°N, 23.8750°E)
Time: 17:48:36
(UTC+00:00)
Language:

ERS-2 - Orbit

View from above orbital plane
View from above orbital plane
View from above satellite
View from above satellite

Ground track
Ground track

The orbit data is extracted from the following two-line orbital elements,

1 23560U 95021A   21105.49494962  .00001033  00000-0  46648-4 0  9998
2 23560  98.5540 306.8730 0002716 203.7092 156.4017 15.23818930388132
Epoch (UTC): 15 April 2021 11:52:43
Eccentricity: 0.0002716
inclination: 98.5540°
perigee height: 492 km
apogee height: 496 km
right ascension of ascending node: 306.8730°
argument of perigee: 203.7092°
revolutions per day: 15.23818930
mean anomaly at epoch: 156.4017°
orbit number at epoch: 38813

The dashed part of the orbit path shows where the satellite is in the earth's shadow,  

DLR